Regional Weather Roundup
Issued by NWS Sioux Falls, SD

Home | Current Version | Previous Version | Text Only | Print | Product List | Glossary On
Versions: 1 2 3 4 5 6 7 8 9 10 11 12 13 14 15 16 17 18 19 20 21 22 23 24 25 26 27 28 29 30 31 32 33 34 35 36 37 38 39 40 41 42 43 44 45 46 47 48 49 50
000
ASUS43 KFSD 172102
RWRFSD

WEATHER ROUNDUP FOR SE SOUTH DAKOTA/SW MINNESOTA/NW IOWA
NATIONAL WEATHER SERVICE SIOUX FALLS SD
300 PM CST FRI NOV 17 2017

NOTE: "FAIR" INDICATES FEW OR NO CLOUDS BELOW 12,000 FEET WITH NO
SIGNIFICANT WEATHER AND OR OBSTRUCTIONS TO VISIBILITY.


SDZ038>040-050-052>070-172200-
SOUTHEAST SOUTH DAKOTA

CITY           SKY/WX    TMP DP  RH WIND       PRES   REMARKS
BROOKINGS      CLOUDY    43  33  68 NE9       29.59R
CHAMBERLAIN    CLOUDY    47  37  67 N10       29.64S
HURON          CLOUDY    48  33  56 N14       29.63R
MADISON        FAIR      45  37  76 N14       29.58S
MITCHELL       PTSUNNY   48  33  56 N13       29.62R
SIOUX FALLS    CLOUDY    48  39  71 N13       29.56F
WINNER         MOCLDY    47  35  63 N12       29.65S
YANKTON        PTSUNNY   50  37  61 N12       29.55F
$$

MNZ071-072-080-081-089-090-097-098-172200-
SOUTHWEST MINNESOTA

CITY           SKY/WX    TMP DP  RH WIND       PRES   REMARKS
FAIRMONT       CLOUDY    43  39  86 CALM      29.57F
JACKSON        CLOUDY    46  39  76 CALM      29.56F
MARSHALL       SUNNY     44  33  65 N15       29.59F
MONTEVIDEO     CLOUDY    39  34  81 NE9       29.60F
PIPESTONE      MOSUNNY   45  34  65 NE10      29.56R
REDWOOD FALLS  CLOUDY    48  35  60 NE5       29.57F
WINDOM           N/A     46  32  57 NW12      29.57S
WORTHINGTON    CLOUDY    48  39  71 N13       29.56S
$$

IAZ001>003-012>014-020>022-031-032-NEZ013-014-SDZ071-172200-
NORTHWEST IOWA

CITY           SKY/WX    TMP DP  RH WIND       PRES   REMARKS
CHEROKEE       CLOUDY    56  47  72 N10       29.53F
DENISON        CLOUDY    52  52 100 CALM      29.53F FOG
ESTHERVILLE    CLOUDY    44  42  93 SE7       29.55F
LE MARS        MOSUNNY   55  43  62 N9        29.53S
ORANGE CITY    SUNNY     55  45  67 N6        29.53S
SHELDON        MOSUNNY   55  43  62 NE6       29.52F
SIOUX CITY     SUNNY     53  39  59 NW15      29.53S
SPENCER        CLOUDY    51  44  77 E6        29.54F
STORM LAKE     CLOUDY    54  48  82 CALM      29.53F
$$

ABBREVIATIONS USED IN REMARKS
   TC - TEMPERATURE IN CELSIUS
  WCI - WIND CHILL INDEX
   HX - HEAT INDEX
  VSB - VISIBILITY




USA.gov is the U.S. government's official web portal to all federal, state and local government web resources and services.